KE5OYL Weather Reports


Display with metric or nautical units.
time (UTC)temp
F
wind
direction
speed
MPH
gust
MPH
rain 1hr
in
rain 24hr
in
rain mn
in
humidity
%
barometer
mb
20260831191057 97 211 5.0 10.0 0.00 0.00 0.00 37 1016.7
20260831190553 97 120 9.0 14.0 0.00 0.00 0.00 37 1016.4
20260831190051 97 71 3.0 9.0 0.00 0.00 0.00 37 1016.4
20260831185547 98 123 5.0 14.0 0.00 0.00 0.00 36 1016.6
20260831185042 97 136 5.0 14.0 0.00 0.00 0.00 37 1016.5
20260831184536 97 149 5.0 8.0 0.00 0.00 0.00 37 1016.6
20260831184031 97 108 2.0 6.0 0.00 0.00 0.00 38 1016.5
20260831183530 97 163 5.0 13.0 0.00 0.00 0.00 37 1016.5
20260831183025 96 252 3.0 13.0 0.00 0.00 0.00 37 1016.7
20260831182519 96 152 9.0 13.0 0.00 0.00 0.00 37 1016.7
20260831182015 98 197 8.0 11.0 0.00 0.00 0.00 37 1016.8
20260831181510 96 151 2.0 9.0 0.00 0.00 0.00 37 1017.0
20260831181004 97 155 7.0 9.0 0.00 0.00 0.00 37 1016.8
20260831180459 97 32 1.0 6.0 0.00 0.00 0.00 39 1017.1
20260831175959 98 75 3.0 6.0 0.00 0.00 0.00 38 1017.2
20260831175455 97 194 3.0 5.0 0.00 0.00 0.00 38 1017.2
20260831174950 96 141 7.0 9.0 0.00 0.00 0.00 39 1017.4
20260831174446 95 250 4.0 8.0 0.00 0.00 0.00 41 1017.4
20260831173945 95 252 8.0 10.0 0.00 0.00 0.00 42 1017.6
20260831173444 96 189 7.0 13.0 0.00 0.00 0.00 41 1017.5
20260831172940 96 250 4.0 6.0 0.00 0.00 0.00 41 1017.8
20260831172435 96 188 4.0 14.0 0.00 0.00 0.00 41 1017.7
20260831171930 96 320 2.0 5.0 0.00 0.00 0.00 42 1017.7
20260831171426 95 193 4.0 7.0 0.00 0.00 0.00 42 1017.8
20260831170923 95 189 6.0 8.0 0.00 0.00 0.00 43 1017.7
20260831170419 94 181 3.0 5.0 0.00 0.00 0.00 42 1018.1
20260831165915 94 149 4.0 8.0 0.00 0.00 0.00 44 1018.3
20260831165410 95 198 5.0 8.0 0.00 0.00 0.00 43 1017.9
20260831164907 95 175 4.0 6.0 0.00 0.00 0.00 42 1017.8
20260831164403 95 200 4.0 7.0 0.00 0.00 0.00 43 1017.8
20260831163858 93 210 6.0 9.0 0.00 0.00 0.00 44 1017.7
20260831163354 94 274 5.0 9.0 0.00 0.00 0.00 44 1017.9
20260831162852 94 217 7.0 8.0 0.00 0.00 0.00 44 1017.9
20260831162348 93 221 3.0 5.0 0.00 0.00 0.00 44 1017.9
20260831161846 93 209 6.0 10.0 0.00 0.00 0.00 45 1018.2
20260831161343 93 195 4.0 6.0 0.00 0.00 0.00 44 1018.1
20260831160837 93 282 6.0 8.0 0.00 0.00 0.00 45 1018.1
20260831160332 92 203 3.0 8.0 0.00 0.00 0.00 47 1018.2
20260831155827 91 246 3.0 7.0 0.00 0.00 0.00 47 1018.1
20260831155327 91 244 6.0 8.0 0.00 0.00 0.00 47 1017.9
20260831154823 93 158 3.0 5.0 0.00 0.00 0.00 47 1018.4
20260831154319 92 344 3.0 5.0 0.00 0.00 0.00 47 1018.3
20260831153818 91 72 3.0 6.0 0.00 0.00 0.00 50 1018.1
20260831153314 90 179 6.0 9.0 0.00 0.00 0.00 50 1018.1
20260831152810 90 43 2.0 3.0 0.00 0.00 0.00 51 1018.2
20260831152306 89 46 1.0 3.0 0.00 0.00 0.00 53 1018.3
20260831151800 88 300 3.0 7.0 0.00 0.00 0.00 55 1018.3
20260831151259 90 196 5.0 7.0 0.00 0.00 0.00 54 1018.1
20260831150754 90 174 5.0 6.0 0.00 0.00 0.00 55 1017.9
20260831150250 89 34 1.0 5.0 0.00 0.00 0.00 56 1018.1
20260831145749 88 175 3.0 5.0 0.00 0.00 0.00 56 1018.1
20260831145245 87 144 3.0 6.0 0.00 0.00 0.00 57 1017.7
20260831144740 87 170 5.0 7.0 0.00 0.00 0.00 57 1017.8
20260831144239 87 226 4.0 5.0 0.00 0.00 0.00 59 1017.9
20260831143736 86 262 4.0 9.0 0.00 0.00 0.00 60 1017.9
20260831143232 86 196 4.0 6.0 0.00 0.00 0.00 60 1018.1
20260831142727 86 189 4.0 5.0 0.00 0.00 0.00 61 1017.8
20260831142223 85 314 2.0 3.0 0.00 0.00 0.00 62 1017.9
20260831141722 84 208 3.0 5.0 0.00 0.00 0.00 64 1017.9
20260831141217 85 206 3.0 6.0 0.00 0.00 0.00 64 1017.8
20260831140716 85 195 3.0 5.0 0.00 0.00 0.00 64 1018.1
20260831140211 85 28 0.0 3.0 0.00 0.00 0.00 64 1017.8
20260831135709 84 358 1.0 2.0 0.00 0.00 0.00 65 1017.8
20260831135204 83 7 1.0 2.0 0.00 0.00 0.00 66 1017.9
20260831134700 84 355 2.0 3.0 0.00 0.00 0.00 66 1017.8
20260831134156 83 338 1.0 2.0 0.00 0.00 0.00 67 1017.6
20260831133655 83 85 2.0 3.0 0.00 0.00 0.00 67 1017.4
20260831133144 83 138 3.0 5.0 0.00 0.00 0.00 67 1017.6
20260831132640 83 26 0.0 2.0 0.00 0.00 0.00 67 1017.3
20260831132139 82 46 1.0 2.0 0.00 0.00 0.00 68 1017.4
20260831131634 81 32 1.0 3.0 0.00 0.00 0.00 69 1017.4
20260831131130 81 53 2.0 3.0 0.00 0.00 0.00 70 1017.6
20260831130625 80 31 1.0 5.0 0.00 0.00 0.00 71 1017.3
20260831130121 80 34 2.0 6.0 0.00 0.00 0.00 72 1017.3
20260831125619 80 106 6.0 8.0 0.00 0.00 0.00 72 1017.3
20260831125115 80 96 6.0 7.0 0.00 0.00 0.00 70 1017.3
20260831124611 80 18 1.0 2.0 0.00 0.00 0.00 70 1017.2
20260831124107 80 62 2.0 5.0 0.00 0.00 0.00 71 1016.9
20260831123606 80 57 2.0 3.0 0.00 0.00 0.00 71 1016.9
20260831123100 80 21 0.0 2.0 0.00 0.00 0.00 70 1016.8
20260831122554 80 68 3.0 3.0 0.00 0.00 0.00 70 1016.9
20260831122050 80 73 1.0 2.0 0.00 0.00 0.00 70 1016.6
20260831121549 80 31 1.0 6.0 0.00 0.00 0.00 71 1016.3
20260831121046 80 34 2.0 6.0 0.00 0.00 0.00 71 1016.6
20260831120545 80 82 5.0 6.0 0.00 0.00 0.00 70 1016.5
20260831120041 81 67 4.0 8.0 0.00 0.00 0.00 70 1016.4
20260831115537 81 55 2.0 3.0 0.00 0.00 0.00 69 1016.3
20260831115032 82 24 0.0 2.0 0.00 0.00 0.00 68 1016.1
20260831114531 82 64 2.0 3.0 0.00 0.00 0.00 67 1016.3
20260831114026 82 31 2.0 3.0 0.00 0.00 0.00 68 1016.2
20260831113526 82 152 5.0 5.0 0.00 0.00 0.00 67 1016.1
20260831113021 82 85 3.0 6.0 0.00 0.00 0.00 67 1016.0
20260831112520 82 248 2.0 3.0 0.00 0.00 0.00 67 1015.8
20260831112015 82 353 1.0 3.0 0.00 0.00 0.00 68 1015.8
20260831111512 82 355 1.0 3.0 0.00 0.00 0.00 67 1015.6
20260831111007 82 227 2.0 3.0 0.00 0.00 0.00 67 1015.8
20260831110508 82 24 1.0 2.0 0.00 0.00 0.00 67 1015.8
20260831110002 82 113 2.0 3.0 0.00 0.00 0.00 66 1015.9
20260831105456 82 138 3.0 6.0 0.00 0.00 0.00 66 1015.7
20260831104951 83 49 1.0 3.0 0.00 0.00 0.00 66 1015.8
20260831104448 83 50 1.0 5.0 0.00 0.00 0.00 65 1015.7
20260831103943 83 314 2.0 2.0 0.00 0.00 0.00 65 1015.6
20260831103438 83 57 1.0 2.0 0.00 0.00 0.00 64 1015.9
20260831102934 83 26 0.0 2.0 0.00 0.00 0.00 64 1015.8
20260831102434 83 53 2.0 3.0 0.00 0.00 0.00 65 1015.8
20260831101928 83 32 1.0 3.0 0.00 0.00 0.00 65 1015.9
20260831101424 83 45 2.0 3.0 0.00 0.00 0.00 64 1015.4
20260831100920 84 76 2.0 2.0 0.00 0.00 0.00 64 1015.7
20260831100415 84 38 1.0 3.0 0.00 0.00 0.00 65 1015.7
20260831095910 84 147 3.0 5.0 0.00 0.00 0.00 64 1015.5
20260831095410 85 23 0.0 2.0 0.00 0.00 0.00 63 1015.7
20260831094904 84 79 2.0 3.0 0.00 0.00 0.00 64 1015.6
20260831094401 85 33 1.0 5.0 0.00 0.00 0.00 63 1015.7
20260831093856 84 215 6.0 7.0 0.00 0.00 0.00 64 1015.5
20260831093351 85 215 3.0 5.0 0.00 0.00 0.00 63 1015.7
20260831092848 85 283 4.0 7.0 0.00 0.00 0.00 62 1015.6
20260831092343 85 220 5.0 7.0 0.00 0.00 0.00 62 1015.5
20260831091838 85 37 0.0 5.0 0.00 0.00 0.00 62 1015.4
20260831091334 85 302 2.0 6.0 0.00 0.00 0.00 61 1015.3
20260831090829 85 158 4.0 8.0 0.00 0.00 0.00 61 1015.3
20260831090325 85 151 3.0 7.0 0.00 0.00 0.00 60 1015.4
20260831085821 85 318 2.0 5.0 0.00 0.00 0.00 60 1015.4
20260831085315 86 175 5.0 6.0 0.00 0.00 0.00 59 1015.1
20260831084810 86 245 6.0 9.0 0.00 0.00 0.00 59 1015.3
20260831084306 86 206 4.0 6.0 0.00 0.00 0.00 58 1015.5
20260831083802 86 190 3.0 8.0 0.00 0.00 0.00 58 1015.3
20260831083257 86 229 7.0 8.0 0.00 0.00 0.00 57 1015.1
20260831082756 86 239 6.0 7.0 0.00 0.00 0.00 56 1015.0
20260831082251 86 217 5.0 8.0 0.00 0.00 0.00 56 1015.1
20260831081747 86 257 5.0 10.0 0.00 0.00 0.00 56 1015.0
20260831081242 86 278 3.0 14.0 0.00 0.00 0.00 55 1015.2
20260831080737 86 256 5.0 13.0 0.00 0.00 0.00 55 1015.2
20260831080232 86 219 6.0 13.0 0.00 0.00 0.00 55 1015.2
20260831075728 86 211 7.0 10.0 0.00 0.00 0.00 54 1015.1
20260831075224 87 245 3.0 8.0 0.00 0.00 0.00 54 1015.1
20260831074722 87 249 8.0 10.0 0.00 0.00 0.00 53 1014.8
20260831074217 87 223 4.0 9.0 0.00 0.00 0.00 53 1014.8
20260831073713 87 228 5.0 10.0 0.00 0.00 0.00 52 1015.2
20260831073211 87 199 9.0 11.0 0.00 0.00 0.00 52 1015.1
20260831072707 87 168 8.0 11.0 0.00 0.00 0.00 51 1015.0
20260831072203 87 280 3.0 8.0 0.00 0.00 0.00 50 1014.8
20260831071703 87 235 5.0 8.0 0.00 0.00 0.00 50 1015.0
20260831071156 87 241 3.0 10.0 0.00 0.00 0.00 49 1015.0
20260831070651 88 215 6.0 14.0 0.00 0.00 0.00 49 1015.0
20260831070145 88 227 4.0 7.0 0.00 0.00 0.00 48 1014.9
20260831065644 88 187 2.0 6.0 0.00 0.00 0.00 48 1015.0
20260831065143 88 290 3.0 5.0 0.00 0.00 0.00 48 1015.1
20260831064638 88 188 3.0 5.0 0.00 0.00 0.00 48 1015.1
20260831064134 88 335 1.0 5.0 0.00 0.00 0.00 48 1014.8
20260831063630 88 330 1.0 2.0 0.00 0.00 0.00 48 1015.1
20260831063124 88 193 3.0 3.0 0.00 0.00 0.00 48 1015.0
20260831062619 88 180 2.0 5.0 0.00 0.00 0.00 48 1015.0
20260831062118 89 187 3.0 3.0 0.00 0.00 0.00 48 1014.9
20260831061616 89 184 3.0 7.0 0.00 0.00 0.00 48 1014.9
20260831061113 89 219 3.0 7.0 0.00 0.00 0.00 48 1015.0
20260831060609 89 191 3.0 3.0 0.00 0.00 0.00 47 1015.0
20260831055603 89 311 2.0 7.0 0.00 0.00 0.00 48 1015.2
20260831055058 89 314 1.0 3.0 0.00 0.00 0.00 48 1015.2
20260831054558 89 224 4.0 5.0 0.00 0.00 0.00 48 1015.0
20260831054057 89 209 3.0 5.0 0.00 0.00 0.00 48 1015.1
20260831053556 89 52 1.0 3.0 0.00 0.00 0.00 48 1015.1
20260831053051 89 218 3.0 3.0 0.00 0.00 0.00 48 1015.1
20260831052549 89 289 2.0 5.0 0.00 0.00 0.00 48 1015.0
20260831052043 89 210 2.0 5.0 0.00 0.00 0.00 48 1015.0
20260831051542 89 54 1.0 6.0 0.00 0.00 0.00 48 1015.0
20260831051036 90 210 3.0 5.0 0.00 0.00 0.00 47 1014.8
20260831050536 90 260 2.0 5.0 0.00 0.00 0.00 47 1014.9
20260831050034 90 28 1.0 3.0 0.00 0.00 0.00 47 1014.8
20260831045533 90 150 3.0 5.0 0.00 0.00 0.00 47 1014.8
20260831045029 90 211 4.0 6.0 0.00 0.00 0.00 47 1015.1
20260831044524 90 220 2.0 6.0 0.00 0.00 0.00 47 1014.6
20260831044020 90 274 2.0 3.0 0.00 0.00 0.00 47 1014.7
20260831043519 90 322 2.0 3.0 0.00 0.00 0.00 46 1014.8
20260831043015 90 198 5.0 8.0 0.00 0.00 0.00 46 1014.9
20260831042514 90 285 2.0 6.0 0.00 0.00 0.00 46 1014.8
20260831042009 90 168 5.0 6.0 0.00 0.00 0.00 46 1014.7
20260831041504 90 229 3.0 6.0 0.00 0.00 0.00 46 1014.8
20260831041004 90 221 4.0 5.0 0.00 0.00 0.00 46 1014.9
20260831040459 90 281 3.0 3.0 0.00 0.00 0.00 46 1014.9
20260831035955 91 325 1.0 3.0 0.00 0.00 0.00 46 1014.8
20260831035450 91 60 2.0 3.0 0.00 0.00 0.00 46 1014.8
20260831034945 91 301 2.0 2.0 0.00 0.00 0.00 45 1014.6
20260831034440 91 154 2.0 5.0 0.00 0.00 0.00 45 1014.7
20260831033935 91 210 3.0 5.0 0.00 0.00 0.00 45 1014.6
20260831033430 92 52 2.0 2.0 0.00 0.00 0.00 44 1014.7
20260831032925 92 32 1.0 2.0 0.00 0.00 0.00 44 1014.5
20260831032420 92 110 3.0 3.0 0.00 0.00 0.00 43 1014.5
20260831031915 92 35 1.0 3.0 0.00 0.00 0.00 43 1014.3
20260831031415 92 94 2.0 3.0 0.00 0.00 0.00 43 1014.5
20260831030909 92 348 1.0 5.0 0.00 0.00 0.00 43 1014.3
20260831030408 93 25 1.0 5.0 0.00 0.00 0.00 42 1014.6
20260831025907 93 15 1.0 3.0 0.00 0.00 0.00 42 1014.4
20260831025406 93 50 2.0 3.0 0.00 0.00 0.00 42 1014.4
20260831024902 93 121 3.0 3.0 0.00 0.00 0.00 42 1014.3
20260831024356 93 54 1.0 2.0 0.00 0.00 0.00 42 1014.3
20260831023856 93 105 1.0 5.0 0.00 0.00 0.00 42 1014.1
20260831023354 93 37 1.0 3.0 0.00 0.00 0.00 42 1014.2
20260831022849 93 54 2.0 3.0 0.00 0.00 0.00 41 1014.0
20260831022348 94 72 1.0 3.0 0.00 0.00 0.00 41 1013.8
20260831021842 94 224 3.0 3.0 0.00 0.00 0.00 41 1014.0
20260831021337 94 53 2.0 6.0 0.00 0.00 0.00 41 1014.0
20260831020833 94 65 2.0 3.0 0.00 0.00 0.00 41 1013.7
20260831020333 94 26 1.0 6.0 0.00 0.00 0.00 41 1013.7
20260831015828 94 157 4.0 6.0 0.00 0.00 0.00 41 1013.6
20260831015324 94 172 4.0 5.0 0.00 0.00 0.00 40 1013.6
20260831014824 94 30 2.0 6.0 0.00 0.00 0.00 40 1013.5
20260831014319 95 60 1.0 8.0 0.00 0.00 0.00 40 1013.4
20260831013815 95 40 2.0 6.0 0.00 0.00 0.00 39 1013.4
20260831013314 95 102 4.0 6.0 0.00 0.00 0.00 39 1013.2
20260831012809 95 103 2.0 6.0 0.00 0.00 0.00 39 1013.5
20260831012306 95 21 1.0 6.0 0.00 0.00 0.00 39 1013.3
20260831011803 96 67 2.0 6.0 0.00 0.00 0.00 38 1013.1
20260831011259 96 21 1.0 6.0 0.00 0.00 0.00 38 1013.2
20260831010755 96 23 1.0 6.0 0.00 0.00 0.00 38 1013.1
20260831010249 96 82 5.0 8.0 0.00 0.00 0.00 38 1013.3
20260831005745 96 192 3.0 6.0 0.00 0.00 0.00 37 1013.0
20260831005241 96 47 3.0 6.0 0.00 0.00 0.00 37 1013.0
20260831004735 96 50 2.0 7.0 0.00 0.00 0.00 37 1013.1
20260831004231 97 291 2.0 5.0 0.00 0.00 0.00 37 1013.1
20260831003727 96 114 6.0 9.0 0.00 0.00 0.00 37 1013.1
20260831003223 97 99 6.0 8.0 0.00 0.00 0.00 37 1013.1
20260831002722 98 93 4.0 8.0 0.00 0.00 0.00 36 1013.0
20260831002216 97 291 1.0 6.0 0.00 0.00 0.00 37 1013.1
20260831001712 97 64 1.0 5.0 0.00 0.00 0.00 37 1013.1
20260831001212 97 54 3.0 7.0 0.00 0.00 0.00 37 1013.0
20260831000709 98 108 5.0 11.0 0.00 0.00 0.00 37 1013.0
20260831000204 98 31 1.0 10.0 0.00 0.00 0.00 36 1013.3
20260830235703 98 55 1.0 9.0 0.00 0.00 0.00 36 1013.3
20260830235158 98 108 7.0 9.0 0.00 0.00 0.00 36 1013.3
20260830234653 98 181 7.0 10.0 0.00 0.00 0.00 36 1013.2
20260830234149 99 43 5.0 10.0 0.00 0.00 0.00 35 1013.2
20260830233644 99 85 6.0 9.0 0.00 0.00 0.00 35 1013.1
20260830233139 99 143 5.0 9.0 0.00 0.00 0.00 35 1013.1
20260830232635 101 138 5.0 7.0 0.00 0.00 0.00 33 1013.3
20260830232131 100 57 2.0 8.0 0.00 0.00 0.00 33 1013.3
20260830231627 99 85 2.0 9.0 0.00 0.00 0.00 34 1013.4
20260830231126 100 130 6.0 13.0 0.00 0.00 0.00 34 1013.1
20260830230622 100 150 6.0 9.0 0.00 0.00 0.00 33 1013.4
20260830230122 101 143 5.0 11.0 0.00 0.00 0.00 32 1013.4
20260830225617 101 193 7.0 8.0 0.00 0.00 0.00 31 1013.3
20260830225112 100 272 2.0 3.0 0.00 0.00 0.00 32 1013.1
20260830224610 100 77 6.0 9.0 0.00 0.00 0.00 33 1013.3
20260830224107 101 115 4.0 6.0 0.00 0.00 0.00 32 1013.4
20260830223603 100 191 9.0 11.0 0.00 0.00 0.00 33 1013.4
20260830223057 100 236 5.0 10.0 0.00 0.00 0.00 32 1013.6
20260830222551 101 233 9.0 11.0 0.00 0.00 0.00 31 1013.4
20260830222042 101 186 5.0 9.0 0.00 0.00 0.00 31 1013.5
20260830221538 101 179 5.0 9.0 0.00 0.00 0.00 31 1013.6
20260830221034 101 292 3.0 8.0 0.00 0.00 0.00 31 1013.4
20260830220533 100 195 9.0 10.0 0.00 0.00 0.00 32 1013.5
20260830220032 101 154 7.0 13.0 0.00 0.00 0.00 32 1013.5
20260830215526 100 284 3.0 10.0 0.00 0.00 0.00 32 1013.5
20260830215020 100 242 5.0 7.0 0.00 0.00 0.00 32 1013.4
20260830214516 100 162 11.0 13.0 0.00 0.00 0.00 32 1013.5
20260830214010 100 136 5.0 10.0 0.00 0.00 0.00 32 1013.3
20260830213505 100 136 4.0 6.0 0.00 0.00 0.00 32 1013.8
20260830213000 100 173 5.0 9.0 0.00 0.00 0.00 32 1013.8
20260830212456 100 230 8.0 13.0 0.00 0.00 0.00 32 1013.7
20260830211955 100 328 1.0 7.0 0.00 0.00 0.00 32 1013.7
20260830211450 100 221 3.0 8.0 0.00 0.00 0.00 33 1013.8
20260830210945 100 125 4.0 7.0 0.00 0.00 0.00 32 1013.9
20260830210440 99 39 3.0 9.0 0.00 0.00 0.00 33 1014.0
20260830205937 99 131 7.0 10.0 0.00 0.00 0.00 33 1014.0
20260830205436 100 203 5.0 11.0 0.00 0.00 0.00 33 1014.1
20260830204932 99 20 3.0 5.0 0.00 0.00 0.00 34 1014.0
20260830204431 99 153 7.0 9.0 0.00 0.00 0.00 33 1014.1
20260830203926 98 150 6.0 8.0 0.00 0.00 0.00 35 1014.2
20260830203423 99 194 5.0 6.0 0.00 0.00 0.00 35 1014.4
20260830202921 99 205 8.0 11.0 0.00 0.00 0.00 35 1014.5
20260830202417 98 185 2.0 10.0 0.00 0.00 0.00 36 1014.5
20260830201913 99 67 5.0 13.0 0.00 0.00 0.00 35 1014.6
20260830201406 99 191 7.0 10.0 0.00 0.00 0.00 35 1014.7
20260830200901 99 227 9.0 11.0 0.00 0.00 0.00 35 1014.6
20260830200355 100 153 5.0 9.0 0.00 0.00 0.00 33 1014.8
20260830195850 98 181 6.0 8.0 0.00 0.00 0.00 34 1015.0
20260830195350 98 200 8.0 13.0 0.00 0.00 0.00 35 1015.0
20260830194848 99 79 8.0 15.0 0.00 0.00 0.00 35 1015.0
20260830194343 100 199 6.0 8.0 0.00 0.00 0.00 33 1015.0
20260830193837 99 86 8.0 13.0 0.00 0.00 0.00 35 1015.2
20260830193331 99 218 4.0 11.0 0.00 0.00 0.00 34 1015.3
20260830192828 99 99 5.0 11.0 0.00 0.00 0.00 35 1015.1
20260830192327 99 253 7.0 11.0 0.00 0.00 0.00 35 1015.3
20260830191823 99 181 6.0 9.0 0.00 0.00 0.00 34 1015.3